{"data":{"norad_id":48043,"epoch":"2026-09-19T19:14:38.670144Z","epoch_age_seconds":78615,"freshness":"FRESH","line1":"1 48043U 21025B   26262.80183646  .00000266  00000+0  69442-3 0  9994","line2":"2 48043  87.8923 301.4009 0002017  96.5165 263.6194 13.13468149265977","mean_motion":13.13468149,"eccentricity":0.0002017,"inclination_deg":87.8923,"raan_deg":301.4009,"arg_perigee_deg":96.5165,"mean_anomaly_deg":263.6194,"bstar":0.00069442,"rev_number":26597,"period_min":109.63341601365,"perigee_km":1208.2420473617,"apogee_km":1211.3030100656,"semimajor_km":7587.9095287137,"source":"CELESTRAK","updated_at":"2026-09-20T09:00:44.583783Z"}}